Location: Dal�� Lhota
(48.7500°N, 14.0167°E)
Time: 01:14:49
(UTC+00:00)

Transit 2A - Pass Details

Date: 01 August 2021
Orbit: 594 x 964 km, 66.7° (Epoch: 27 September)

Event Time Altitude Azimuth Distance (km) Brightness Sun altitude
Rises 08:42:52 0° 295° (WNW) 2,962 8.6 47.2°
Reaches altitude 10° 08:47:04 10° 333° (NNW) 2,139 8.1 47.7°
Maximum altitude 08:48:22 11° 348° (NNW) 2,103 8.1 47.9°
Drops below altitude 10° 08:49:42 10° 4° (N) 2,199 8.3 48.1°
Sets 08:54:16 0° 40° (NE) 3,236 9.3 48.7°
